Terminal Aerodrome Forecast
Issued by NWS Flagstaff, AZ

Home | Current Version | Previous Version | Text Only | Print | Product List | Glossary On
Versions: 1 2 3 4 5 6 7 8 9 10 11 12 13 14 15 16 17 18 19
000
FTUS45 KFGZ 031720
TAFINW
TAF
KINW 031720Z 0318/0418 VRB05KT P6SM SCT120 SCT250
     FM032000 21012KT P6SM SCT060 BKN100 OVC250
      TEMPO 0320/0324 VRB15G25KT -TSRA BKN070CB
     FM040200 22006KT P6SM SCT080 BKN200=

USA.gov is the U.S. government's official web portal to all federal, state and local government web resources and services.